Location: ????????
(48.4751°N, 37.6926°E)
Time: 13:35:20
(UTC+00:00)

ARGOS - Pass Details

Date: 20 January 2021
Orbit: 821 x 834 km, 98.4° (Epoch: 26 February)

Event Time Altitude Azimuth Distance (km) Brightness Sun altitude
Rises 15:48:35 0° 146° (SE) 3,343 6.1 -16.1°
Reaches altitude 10° 15:50:59 10° 140° (SE) 2,415 5.3 -16.5°
Maximum altitude 15:56:06 48° 68° (ENE) 1,071 3.3 -17.4°
Drops below altitude 10° 16:01:15 10° 356° (N) 2,437 5.5 -18.2°
Sets 16:03:41 0° 351° (N) 3,376 6.3 -18.6°
